Check out our new BloomSky Weather System.

Active alerts

Galveston, TX
  Details for Galveston, TX Coastal Flood Advisory  +2 additional alerts
Houston, TX
  Details for Houston, TX Flash Flood Watch
Fort Bend, TX
  Details for Fort Bend, TX Flash Flood Watch


Thunder radar  blitzortung!


Rain radar more information rain snow radar


Visit our other weather sites:

Template documentation
and downloads

And another site



Weather Underground History page Text

Daily Summary for January 30, 2018 Units:  Metric    English   Both
« Previous Day
Next Day »
Daily Weekly Monthly Yearly Custom
  High: Low: Average:
Temperature: -17.8 °C 3.1 °C 9.7 °C
Dew Point: -17.8 °C -1.1 °C 0.9 °C
Humidity: Humidity % 30 % 56 %
Wind Speed: 0 km/h 0 km/h 2.3 km/h
Wind Gust: 0 km/h - -
Wind:- - South
Pressure: 0 hPa 1025.6 hPa -
Precipitation: 0 mm    
Historical Graphs
 
 
Tabular Data for January 30, 2018
Time Temperature Dew Point Pressure Wind Wind Speed Wind Gust Humidity Rainfall Rate (Hourly)
-17.8 °C -17.8 °C 0 hPa Calm     Humidity % 0 mm
00:03 7.9 °C 0.8 °C 1032.7 hPa Calm   6.4 km/h 61 % 0 mm
00:08 7.8 °C 0.7 °C 1032.7 hPa North 3.2 km/h 6.4 km/h 61 % 0 mm
00:13 7.7 °C 0.9 °C 1032.7 hPa NNW 3.2 km/h 6.4 km/h 62 % 0 mm
00:18 7.6 °C 0.8 °C 1032.7 hPa NNW 1.6 km/h 6.4 km/h 62 % 0 mm
00:23 7.5 °C 0.7 °C 1032.7 hPa NW 1.6 km/h 6.4 km/h 62 % 0 mm
00:28 7.4 °C 0.6 °C 1032.7 hPa Calm   6.4 km/h 62 % 0 mm
00:33 7.3 °C 0.5 °C 1032.7 hPa NNW 1.6 km/h 6.4 km/h 62 % 0 mm
00:38 7.2 °C 0.6 °C 1032.7 hPa NNW 1.6 km/h 6.4 km/h 63 % 0 mm
00:43 7.2 °C 0.6 °C 1032.7 hPa Calm   4.8 km/h 63 % 0 mm
00:48 7.1 °C 0.5 °C 1032.7 hPa Calm   4.8 km/h 63 % 0 mm
00:53 6.9 °C 0.3 °C 1032.7 hPa North 3.2 km/h 4.8 km/h 63 % 0 mm
00:58 6.9 °C 0.6 °C 1032.4 hPa North 1.6 km/h 4.8 km/h 64 % 0 mm
01:03 6.8 °C 0.5 °C 1032.4 hPa NNW 1.6 km/h 4.8 km/h 64 % 0 mm
01:08 6.7 °C 0.4 °C 1032.7 hPa NNW 1.6 km/h 4.8 km/h 64 % 0 mm
01:13 6.7 °C 0.4 °C 1032.7 hPa Calm   3.2 km/h 64 % 0 mm
01:18 6.7 °C 0.4 °C 1032.4 hPa NNW 1.6 km/h 4.8 km/h 64 % 0 mm
01:23 6.6 °C 0.3 °C 1032.4 hPa Calm   4.8 km/h 64 % 0 mm
01:28 6.5 °C 0.4 °C 1032.4 hPa Calm   4.8 km/h 65 % 0 mm
01:33 6.5 °C 0.4 °C 1032.4 hPa Calm   3.2 km/h 65 % 0 mm
01:38 6.4 °C 0.3 °C 1032.4 hPa Calm   3.2 km/h 65 % 0 mm
01:43 6.5 °C 0.2 °C 1032.4 hPa NNW 1.6 km/h 8 km/h 64 % 0 mm
01:48 6.4 °C 0.1 °C 1032.4 hPa Calm   8 km/h 64 % 0 mm
01:53 6.4 °C 0.1 °C 1032.4 hPa Calm   8 km/h 64 % 0 mm
01:58 6.3 °C 0.2 °C 1032.7 hPa NNW 1.6 km/h 4.8 km/h 65 % 0 mm
02:03 6.2 °C 0.1 °C 1032.4 hPa Calm   4.8 km/h 65 % 0 mm
02:08 6.1 °C 0 °C 1032.4 hPa Calm   3.2 km/h 65 % 0 mm
02:13 6 °C 0.1 °C 1032.1 hPa North 1.6 km/h 3.2 km/h 66 % 0 mm
02:18 5.9 °C 0 °C 1032.4 hPa Calm   3.2 km/h 66 % 0 mm
02:23 5.8 °C -0.1 °C 1032.4 hPa Calm   3.2 km/h 66 % 0 mm
02:28 5.8 °C -0.1 °C 1032.4 hPa Calm   3.2 km/h 66 % 0 mm
02:34 5.7 °C 0.1 °C 1032.4 hPa Calm   1.6 km/h 67 % 0 mm
02:39 5.7 °C 0.1 °C 1032.1 hPa NNW 1.6 km/h 3.2 km/h 67 % 0 mm
02:44 5.6 °C 0 °C 1032.1 hPa Calm   3.2 km/h 67 % 0 mm
02:49 5.6 °C 0 °C 1032.1 hPa Calm   3.2 km/h 67 % 0 mm
02:54 5.6 °C 0 °C 1032.1 hPa Calm   3.2 km/h 67 % 0 mm
02:59 5.5 °C -0.1 °C 1032.1 hPa North 1.6 km/h 3.2 km/h 67 % 0 mm
03:04 5.4 °C -0.2 °C 1032.1 hPa Calm   3.2 km/h 67 % 0 mm
03:09 5.4 °C -0.2 °C 1032.1 hPa Calm   3.2 km/h 67 % 0 mm
03:14 5.3 °C -0.3 °C 1032.1 hPa Calm   1.6 km/h 67 % 0 mm
03:19 5.2 °C -0.2 °C 1032.1 hPa Calm   1.6 km/h 68 % 0 mm
03:24 5.2 °C -0.2 °C 1032.1 hPa Calm   1.6 km/h 68 % 0 mm
03:29 5.1 °C -0.3 °C 1032.1 hPa Calm   1.6 km/h 68 % 0 mm
03:34 5.1 °C -0.3 °C 1032.1 hPa Calm   1.6 km/h 68 % 0 mm
03:39 5.1 °C -0.3 °C 1032.1 hPa Calm   1.6 km/h 68 % 0 mm
03:44 5.1 °C -0.5 °C 1032.1 hPa Calm   4.8 km/h 67 % 0 mm
03:49 5.1 °C -0.5 °C 1032.1 hPa Calm   4.8 km/h 67 % 0 mm
03:54 5.1 °C -0.5 °C 1032.1 hPa NNW 1.6 km/h 4.8 km/h 67 % 0 mm
03:59 5.3 °C -0.5 °C 1032.1 hPa Calm   6.4 km/h 66 % 0 mm
04:04 5.3 °C -0.7 °C 1032.1 hPa NNE 1.6 km/h 6.4 km/h 65 % 0 mm
04:09 5.5 °C -0.6 °C 1032.1 hPa NNW 1.6 km/h 6.4 km/h 65 % 0 mm
04:14 5.6 °C -0.7 °C 1032.1 hPa NE 1.6 km/h 6.4 km/h 64 % 0 mm
04:19 5.7 °C -0.6 °C 1031.7 hPa NNW 1.6 km/h 8 km/h 64 % 0 mm
04:24 5.7 °C -0.6 °C 1032.1 hPa North 3.2 km/h 8 km/h 64 % 0 mm
04:29 5.7 °C -0.6 °C 1032.1 hPa ENE 1.6 km/h 8 km/h 64 % 0 mm
04:34 5.7 °C -0.6 °C 1032.1 hPa Calm   6.4 km/h 64 % 0 mm
04:39 5.6 °C -0.7 °C 1032.1 hPa NNW 1.6 km/h 6.4 km/h 64 % 0 mm
04:44 5.6 °C -0.7 °C 1031.7 hPa NNE 3.2 km/h 8 km/h 64 % 0 mm
04:49 5.4 °C -0.7 °C 1031.7 hPa North 4.8 km/h 8 km/h 65 % 0 mm
04:54 5.4 °C -0.7 °C 1031.7 hPa NNE 4.8 km/h 8 km/h 65 % 0 mm
04:59 5.3 °C -0.5 °C 1031.7 hPa Calm   4.8 km/h 66 % 0 mm
05:04 5.2 °C -0.6 °C 1031.7 hPa Calm   4.8 km/h 66 % 0 mm
05:09 5 °C -0.6 °C 1031.7 hPa Calm   4.8 km/h 67 % 0 mm
05:14 4.8 °C -0.8 °C 1031.7 hPa Calm   4.8 km/h 67 % 0 mm
05:19 4.5 °C -0.9 °C 1031.7 hPa Calm   1.6 km/h 68 % 0 mm
05:24 4.3 °C -0.9 °C 1031.7 hPa Calm   1.6 km/h 69 % 0 mm
05:29 4.2 °C -0.6 °C 1031.7 hPa Calm     71 % 0 mm
05:34 4.1 °C -0.7 °C 1031.7 hPa Calm     71 % 0 mm
05:39 4 °C -0.6 °C 1031.7 hPa Calm     72 % 0 mm
05:44 3.9 °C -0.7 °C 1031.7 hPa Calm   3.2 km/h 72 % 0 mm
05:49 3.9 °C -0.7 °C 1031.7 hPa Calm   3.2 km/h 72 % 0 mm
05:54 3.8 °C -0.6 °C 1032.1 hPa Calm   3.2 km/h 73 % 0 mm
05:59 3.7 °C -0.7 °C 1032.1 hPa Calm   1.6 km/h 73 % 0 mm
06:04 3.7 °C -0.7 °C 1032.1 hPa Calm   1.6 km/h 73 % 0 mm
06:09 3.7 °C -0.5 °C 1031.7 hPa Calm   1.6 km/h 74 % 0 mm
06:14 3.6 °C -0.6 °C 1031.7 hPa NNW 1.6 km/h 1.6 km/h 74 % 0 mm
06:19 3.6 °C -0.4 °C 1031.7 hPa Calm   1.6 km/h 75 % 0 mm
06:24 3.5 °C -0.5 °C 1031.7 hPa Calm   1.6 km/h 75 % 0 mm
06:29 3.4 °C -0.6 °C 1031.7 hPa Calm   1.6 km/h 75 % 0 mm
06:34 3.3 °C -0.5 °C 1031.7 hPa Calm   1.6 km/h 76 % 0 mm
06:39 3.2 °C -0.6 °C 1032.1 hPa Calm   1.6 km/h 76 % 0 mm
06:44 3.2 °C -0.4 °C 1032.1 hPa Calm   1.6 km/h 77 % 0 mm
06:49 3.1 °C -0.5 °C 1032.1 hPa Calm   1.6 km/h 77 % 0 mm
06:54 3.1 °C -0.5 °C 1032.1 hPa Calm   1.6 km/h 77 % 0 mm
06:59 3.1 °C -0.5 °C 1032.1 hPa Calm   1.6 km/h 77 % 0 mm
07:04 3.1 °C -0.5 °C 1032.1 hPa Calm   1.6 km/h 77 % 0 mm
07:09 3.1 °C -0.5 °C 1032.4 hPa Calm   1.6 km/h 77 % 0 mm
07:14 3.2 °C -0.4 °C 1032.4 hPa Calm   1.6 km/h 77 % 0 mm
07:19 3.2 °C -0.4 °C 1032.4 hPa Calm   1.6 km/h 77 % 0 mm
07:24 3.3 °C -0.5 °C 1032.4 hPa Calm   1.6 km/h 76 % 0 mm
07:29 3.4 °C -0.4 °C 1032.4 hPa North 1.6 km/h 1.6 km/h 76 % 0 mm
07:34 3.5 °C -0.3 °C 1032.4 hPa Calm   1.6 km/h 76 % 0 mm
07:39 3.6 °C -0.4 °C 1032.7 hPa Calm   1.6 km/h 75 % 0 mm
07:44 3.7 °C -0.3 °C 1032.7 hPa Calm   3.2 km/h 75 % 0 mm
07:49 3.7 °C -0.3 °C 1032.7 hPa Calm   3.2 km/h 75 % 0 mm
07:54 3.8 °C -0.2 °C 1032.7 hPa Calm   3.2 km/h 75 % 0 mm
07:59 3.9 °C -0.1 °C 1032.7 hPa Calm   3.2 km/h 75 % 0 mm
08:04 4.1 °C 0.1 °C 1032.7 hPa NNW 1.6 km/h 3.2 km/h 75 % 0 mm
08:09 4.3 °C 0.1 °C 1032.7 hPa Calm   3.2 km/h 74 % 0 mm
08:14 4.6 °C 0.2 °C 1032.7 hPa Calm   4.8 km/h 73 % 0 mm
08:19 4.8 °C 0.2 °C 1032.7 hPa Calm   4.8 km/h 72 % 0 mm
08:24 5.2 °C 0.6 °C 1032.7 hPa Calm   4.8 km/h 72 % 0 mm
08:29 5.5 °C 0.5 °C 1032.7 hPa ENE 4.8 km/h 4.8 km/h 70 % 0 mm
08:34 5.8 °C 0.4 °C 1033.1 hPa NNE 1.6 km/h 6.4 km/h 68 % 0 mm
08:39 6.1 °C 0.4 °C 1032.7 hPa East 4.8 km/h 11.3 km/h 67 % 0 mm
08:44 6.4 °C 0.5 °C 1032.7 hPa NNW 3.2 km/h 11.3 km/h 66 % 0 mm
08:49 6.6 °C 0.5 °C 1032.7 hPa Calm   11.3 km/h 65 % 0 mm
08:54 6.8 °C 0.7 °C 1032.7 hPa Calm   11.3 km/h 65 % 0 mm
08:59 7.1 °C 0.7 °C 1032.7 hPa NNW 4.8 km/h 11.3 km/h 64 % 0 mm
09:04 7.1 °C 0.5 °C 1032.7 hPa NNE 3.2 km/h 11.3 km/h 63 % 0 mm
09:09 7.3 °C 0.7 °C 1032.7 hPa NNW 3.2 km/h 11.3 km/h 63 % 0 mm
09:14 7.6 °C 1 °C 1032.7 hPa East 6.4 km/h 14.5 km/h 63 % 0 mm
09:19 7.8 °C 0.5 °C 1032.7 hPa NNE 4.8 km/h 14.5 km/h 60 % 0 mm
09:24 7.8 °C 0.5 °C 1032.7 hPa East 9.7 km/h 14.5 km/h 60 % 0 mm
09:29 7.8 °C 0.7 °C 1032.7 hPa North 4.8 km/h 14.5 km/h 61 % 0 mm
09:34 8.1 °C 1 °C 1032.7 hPa NW 1.6 km/h 14.5 km/h 61 % 0 mm
09:39 8.3 °C 1 °C 1032.7 hPa Calm   14.5 km/h 60 % 0 mm
09:44 8.5 °C 0.7 °C 1033.1 hPa ESE 8 km/h 17.7 km/h 58 % 0 mm
09:49 8.5 °C 0.9 °C 1033.1 hPa East 8 km/h 17.7 km/h 59 % 0 mm
09:54 8.6 °C 1.3 °C 1032.7 hPa NNE 6.4 km/h 17.7 km/h 60 % 0 mm
09:59 9 °C 1.4 °C 1032.7 hPa Calm   11.3 km/h 59 % 0 mm
10:04 9.2 °C 1.1 °C 1032.7 hPa ENE 3.2 km/h 12.9 km/h 57 % 0 mm
10:09 9.2 °C 1.1 °C 1032.7 hPa ESE 3.2 km/h 14.5 km/h 57 % 0 mm
10:14 9.3 °C 1.2 °C 1032.7 hPa East 9.7 km/h 14.5 km/h 57 % 0 mm
10:19 9.3 °C 1.2 °C 1032.7 hPa Calm   14.5 km/h 57 % 0 mm
10:24 9.6 °C 1.7 °C 1032.7 hPa NE 3.2 km/h 11.3 km/h 58 % 0 mm
10:29 9.9 °C 1.5 °C 1032.7 hPa East 4.8 km/h 11.3 km/h 56 % 0 mm
10:34 10.1 °C 1.7 °C 1032.7 hPa NE 1.6 km/h 9.7 km/h 56 % 0 mm
10:35 10.2 °C 1.8 °C 1032.7 hPa East 4.8 km/h 9.7 km/h 56 % 0 mm
10:40 10.2 °C 1.6 °C 1032.4 hPa North 11.3 km/h 11.3 km/h 55 % 0 mm
10:45 10.4 °C 1.7 °C 1032.4 hPa Calm   11.3 km/h 55 % 0 mm
10:50 10.8 °C 2.1 °C 1032.4 hPa Calm   11.3 km/h 55 % 0 mm
10:55 11.2 °C 2.2 °C 1032.4 hPa North 1.6 km/h 11.3 km/h 54 % 0 mm
11:00 11.4 °C 1.9 °C 1032.4 hPa ENE 4.8 km/h 11.3 km/h 52 % 0 mm
11:05 11.5 °C 2 °C 1032.1 hPa NNW 3.2 km/h 11.3 km/h 52 % 0 mm
11:10 11.7 °C 1.9 °C 1032.1 hPa East 1.6 km/h 17.7 km/h 51 % 0 mm
11:15 11.9 °C 2.1 °C 1032.1 hPa NE 4.8 km/h 17.7 km/h 51 % 0 mm
11:20 12.1 °C 2 °C 1032.1 hPa WNW 1.6 km/h 17.7 km/h 50 % 0 mm
11:25 12.4 °C 2 °C 1031.7 hPa East 6.4 km/h 9.7 km/h 49 % 0 mm
11:30 12.6 °C 2.2 °C 1031.7 hPa East 3.2 km/h 14.5 km/h 49 % 0 mm
11:35 12.7 °C 2.3 °C 1031.7 hPa ENE 3.2 km/h 14.5 km/h 49 % 0 mm
11:40 13 °C 2.2 °C 1031.7 hPa Calm   14.5 km/h 48 % 0 mm
11:45 13.2 °C 1.5 °C 1031.4 hPa East 3.2 km/h 11.3 km/h 45 % 0 mm
11:50 13.1 °C 1.7 °C 1031 hPa NNE 1.6 km/h 11.3 km/h 46 % 0 mm
11:55 13.2 °C 1.8 °C 1031 hPa North 1.6 km/h 11.3 km/h 46 % 0 mm
12:00 13.5 °C 1.8 °C 1030.7 hPa SSE 4.8 km/h 9.7 km/h 45 % 0 mm
12:05 13.8 °C 2.1 °C 1030.7 hPa SE 3.2 km/h 9.7 km/h 45 % 0 mm
12:11 13.9 °C 1.2 °C 1030.7 hPa NNW 3.2 km/h 11.3 km/h 42 % 0 mm
12:16 14.1 °C 2 °C 1030.7 hPa Calm   11.3 km/h 44 % 0 mm
12:21 14.4 °C 1 °C 1030.7 hPa South 6.4 km/h 11.3 km/h 40 % 0 mm
12:26 14.6 °C 1.1 °C 1030.4 hPa SE 6.4 km/h 11.3 km/h 40 % 0 mm
12:31 14.7 °C 1.2 °C 1030.4 hPa SW 1.6 km/h 11.3 km/h 40 % 0 mm
12:36 14.9 °C 1.1 °C 1030.4 hPa North 1.6 km/h 9.7 km/h 39 % 0 mm
12:41 15 °C 0.8 °C 1030 hPa ESE 4.8 km/h 9.7 km/h 38 % 0 mm
12:46 15.2 °C 1.7 °C 1030 hPa South 1.6 km/h 8 km/h 40 % 0 mm
12:51 15.7 °C 1.4 °C 1030 hPa ESE 6.4 km/h 6.4 km/h 38 % 0 mm
12:56 15.9 °C 2 °C 1029.7 hPa NNW 1.6 km/h 6.4 km/h 39 % 0 mm
13:01 16.4 °C 2 °C 1029.3 hPa SW 1.6 km/h 6.4 km/h 38 % 0 mm
13:06 16.6 °C 2.2 °C 1029.3 hPa Calm   8 km/h 38 % 0 mm
13:11 16.5 °C 1.4 °C 1029.3 hPa East 1.6 km/h 9.7 km/h 36 % 0 mm
13:16 16.2 °C 1.9 °C 1029 hPa Calm   9.7 km/h 38 % 0 mm
13:21 16.3 °C 2 °C 1029 hPa East 3.2 km/h 9.7 km/h 38 % 0 mm
13:26 16.4 °C 1.7 °C 1029 hPa ESE 3.2 km/h 8 km/h 37 % 0 mm
13:31 16.3 °C 1.2 °C 1028.7 hPa SSW 4.8 km/h 12.9 km/h 36 % 0 mm
13:36 16.3 °C 0.8 °C 1028.7 hPa SE 6.4 km/h 12.9 km/h 35 % 0 mm
13:41 16.2 °C 1.1 °C 1028.7 hPa SE 1.6 km/h 12.9 km/h 36 % 0 mm
13:46 16.3 °C 1.6 °C 1028.7 hPa SSE 1.6 km/h 11.3 km/h 37 % 0 mm
13:51 16.7 °C 1.9 °C 1028.3 hPa ESE 3.2 km/h 11.3 km/h 37 % 0 mm
13:56 16.6 °C 1.1 °C 1028.3 hPa SSE 3.2 km/h 11.3 km/h 35 % 0 mm
14:01 16.4 °C 1.7 °C 1028.3 hPa Calm   9.7 km/h 37 % 0 mm
14:06 16.7 °C 1.9 °C 1028.3 hPa ESE 4.8 km/h 9.7 km/h 37 % 0 mm
14:11 16.9 °C 1.3 °C 1028.3 hPa SE 9.7 km/h 12.9 km/h 35 % 0 mm
14:16 16.8 °C 0.4 °C 1028.3 hPa SSE 8 km/h 12.9 km/h 33 % 0 mm
14:21 16.7 °C 0.3 °C 1028 hPa West 1.6 km/h 12.9 km/h 33 % 0 mm
14:26 16.8 °C 0.4 °C 1028 hPa South 1.6 km/h 12.9 km/h 33 % 0 mm
14:31 16.8 °C 0.4 °C 1028 hPa SSE 4.8 km/h 11.3 km/h 33 % 0 mm
14:36 16.6 °C -1.1 °C 1028 hPa South 4.8 km/h 8 km/h 30 % 0 mm
14:41 16.4 °C -0.8 °C 1028 hPa ESE 4.8 km/h 11.3 km/h 31 % 0 mm
14:46 16.3 °C 0.8 °C 1028 hPa SE 6.4 km/h 11.3 km/h 35 % 0 mm
14:51 16.2 °C 0.7 °C 1028 hPa SSW 4.8 km/h 11.3 km/h 35 % 0 mm
14:56 16.2 °C 1.1 °C 1028 hPa SSW 4.8 km/h 11.3 km/h 36 % 0 mm
15:01 16.3 °C 1.6 °C 1027.7 hPa SE 1.6 km/h 11.3 km/h 37 % 0 mm
15:06 16.4 °C 1.3 °C 1027.7 hPa SE 3.2 km/h 11.3 km/h 36 % 0 mm
15:11 16.4 °C 0.5 °C 1027.7 hPa Calm   8 km/h 34 % 0 mm
15:16 16.6 °C 0.7 °C 1027.7 hPa ESE 3.2 km/h 8 km/h 34 % 0 mm
15:21 16.7 °C 0.3 °C 1027.7 hPa SE 1.6 km/h 8 km/h 33 % 0 mm
15:26 16.7 °C 0.3 °C 1027.7 hPa SE 4.8 km/h 11.3 km/h 33 % 0 mm
15:31 16.6 °C 0.7 °C 1027.7 hPa Calm   11.3 km/h 34 % 0 mm
15:36 16.7 °C 0.8 °C 1027.7 hPa South 4.8 km/h 11.3 km/h 34 % 0 mm
15:41 16.8 °C 0.4 °C 1027.3 hPa South 6.4 km/h 9.7 km/h 33 % 0 mm
15:46 16.6 °C 0.3 °C 1027.3 hPa South 4.8 km/h 11.3 km/h 33 % 0 mm
15:51 16.6 °C -0.6 °C 1027.3 hPa ESE 4.8 km/h 11.3 km/h 31 % 0 mm
15:56 16.7 °C -0.1 °C 1027.3 hPa SW 6.4 km/h 11.3 km/h 32 % 0 mm
16:01 16.7 °C -0.5 °C 1027.3 hPa SSE 4.8 km/h 12.9 km/h 31 % 0 mm
16:06 16.7 °C -0.1 °C 1027.3 hPa SE 4.8 km/h 12.9 km/h 32 % 0 mm
16:11 16.7 °C 0.3 °C 1027.3 hPa SE 1.6 km/h 12.9 km/h 33 % 0 mm
16:16 16.7 °C 0.3 °C 1027.3 hPa ESE 3.2 km/h 12.9 km/h 33 % 0 mm
16:21 16.7 °C 0.8 °C 1027 hPa SSE 6.4 km/h 9.7 km/h 34 % 0 mm
16:26 16.6 °C 1.1 °C 1027 hPa Calm   11.3 km/h 35 % 0 mm
16:31 16.6 °C 1.1 °C 1027 hPa Calm   11.3 km/h 35 % 0 mm
16:36 16.6 °C 1.5 °C 1027 hPa ESE 8 km/h 11.3 km/h 36 % 0 mm
16:41 16.4 °C 1.3 °C 1027 hPa SE 3.2 km/h 8 km/h 36 % 0 mm
16:46 16.4 °C 1.3 °C 1027 hPa SSE 3.2 km/h 8 km/h 36 % 0 mm
16:51 16.3 °C 1.2 °C 1027 hPa SSE 6.4 km/h 8 km/h 36 % 0 mm
16:56 16.3 °C 1.2 °C 1027 hPa SE 1.6 km/h 11.3 km/h 36 % 0 mm
17:01 16.3 °C 1.2 °C 1027 hPa SW 4.8 km/h 11.3 km/h 36 % 0 mm
17:06 16.2 °C 0.7 °C 1027 hPa South 8 km/h 11.3 km/h 35 % 0 mm
17:11 16 °C 0.9 °C 1026.6 hPa SSW 1.6 km/h 8 km/h 36 % 0 mm
17:13 15.9 °C 0.8 °C 1026.6 hPa SW 3.2 km/h 8 km/h 36 % 0 mm
17:18 15.7 °C 1 °C 1026.6 hPa SW 6.4 km/h 8 km/h 37 % 0 mm
17:23 15.5 °C 0.9 °C 1026.6 hPa SSE 3.2 km/h 8 km/h 37 % 0 mm
17:28 15.4 °C 0.8 °C 1027 hPa South 6.4 km/h 8 km/h 37 % 0 mm
17:33 15.2 °C 1 °C 1027 hPa South 1.6 km/h 8 km/h 38 % 0 mm
17:38 15 °C 1.2 °C 1027 hPa SSE 3.2 km/h 8 km/h 39 % 0 mm
17:43 14.8 °C 1.3 °C 1027 hPa Calm   8 km/h 40 % 0 mm
17:48 14.7 °C 1.2 °C 1026.6 hPa East 3.2 km/h 4.8 km/h 40 % 0 mm
17:53 14.7 °C 1.2 °C 1026.6 hPa SE 4.8 km/h 8 km/h 40 % 0 mm
17:58 14.6 °C 1.1 °C 1026.6 hPa Calm   8 km/h 40 % 0 mm
18:03 14.5 °C 1.4 °C 1026.6 hPa SE 1.6 km/h 8 km/h 41 % 0 mm
18:08 14.3 °C 1.2 °C 1026.6 hPa Calm   6.4 km/h 41 % 0 mm
18:13 14.1 °C 1.4 °C 1026.6 hPa Calm   4.8 km/h 42 % 0 mm
18:18 13.9 °C 1.5 °C 1026.6 hPa Calm   4.8 km/h 43 % 0 mm
18:23 13.7 °C 1.3 °C 1026.6 hPa Calm   4.8 km/h 43 % 0 mm
18:28 13.4 °C 1.4 °C 1026.3 hPa Calm   1.6 km/h 44 % 0 mm
18:33 13.3 °C 1.6 °C 1026.3 hPa Calm   3.2 km/h 45 % 0 mm
18:38 13.1 °C 1.4 °C 1026.3 hPa ESE 1.6 km/h 3.2 km/h 45 % 0 mm
18:43 12.9 °C 1.6 °C 1026.3 hPa SE 1.6 km/h 3.2 km/h 46 % 0 mm
18:48 12.9 °C 1.9 °C 1026.3 hPa SE 4.8 km/h 4.8 km/h 47 % 0 mm
18:53 12.9 °C 2.2 °C 1026.6 hPa ESE 6.4 km/h 6.4 km/h 48 % 0 mm
18:58 13 °C 2.5 °C 1026.3 hPa SE 3.2 km/h 9.7 km/h 49 % 0 mm
19:03 13 °C 2.8 °C 1026.6 hPa South 1.6 km/h 9.7 km/h 50 % 0 mm
19:08 12.9 °C 2.7 °C 1026.6 hPa SSW 1.6 km/h 9.7 km/h 50 % 0 mm
19:13 12.7 °C 2.8 °C 1026.6 hPa SSW 4.8 km/h 6.4 km/h 51 % 0 mm
19:18 12.5 °C 2.9 °C 1026.6 hPa SSE 4.8 km/h 6.4 km/h 52 % 0 mm
19:23 12.4 °C 2.5 °C 1026.6 hPa SE 4.8 km/h 6.4 km/h 51 % 0 mm
19:28 12.3 °C 2.4 °C 1026.6 hPa SSE 4.8 km/h 6.4 km/h 51 % 0 mm
19:33 12.2 °C 2.4 °C 1026.6 hPa SSE 1.6 km/h 8 km/h 51 % 0 mm
19:38 12.1 °C 2.3 °C 1026.6 hPa SE 6.4 km/h 8 km/h 51 % 0 mm
19:43 12.1 °C 2.3 °C 1026.6 hPa South 3.2 km/h 9.7 km/h 51 % 0 mm
19:48 11.9 °C 2.1 °C 1026.6 hPa SE 1.6 km/h 9.7 km/h 51 % 0 mm
19:53 11.8 °C 2 °C 1027 hPa SSE 1.6 km/h 9.7 km/h 51 % 0 mm
19:58 11.7 °C 1.9 °C 1027 hPa ESE 4.8 km/h 6.4 km/h 51 % 0 mm
20:03 11.6 °C 1.8 °C 1027 hPa SE 6.4 km/h 9.7 km/h 51 % 0 mm
20:08 11.4 °C 1.6 °C 1027.3 hPa South 3.2 km/h 9.7 km/h 51 % 0 mm
20:13 11.3 °C 1.8 °C 1027 hPa ESE 4.8 km/h 9.7 km/h 52 % 0 mm
20:18 11.2 °C 1.7 °C 1027 hPa SE 4.8 km/h 8 km/h 52 % 0 mm
20:23 11.1 °C 1.6 °C 1026.6 hPa SE 3.2 km/h 6.4 km/h 52 % 0 mm
20:28 11 °C 1.5 °C 1027 hPa SE 1.6 km/h 6.4 km/h 52 % 0 mm
20:33 10.9 °C 1.7 °C 1027 hPa SE 1.6 km/h 6.4 km/h 53 % 0 mm
20:38 10.7 °C 1.8 °C 1027 hPa SE 3.2 km/h 6.4 km/h 54 % 0 mm
20:43 10.7 °C 2.3 °C 1027 hPa ESE 6.4 km/h 6.4 km/h 56 % 0 mm
20:48 10.7 °C 2.3 °C 1027 hPa SE 4.8 km/h 12.9 km/h 56 % 0 mm
20:53 10.7 °C 2.5 °C 1027 hPa SE 4.8 km/h 12.9 km/h 57 % 0 mm
20:58 10.7 °C 2.8 °C 1027 hPa SE 1.6 km/h 12.9 km/h 58 % 0 mm
21:03 10.5 °C 2.6 °C 1026.6 hPa SE 3.2 km/h 11.3 km/h 58 % 0 mm
21:08 10.3 °C 2.9 °C 1026.6 hPa ESE 6.4 km/h 9.7 km/h 60 % 0 mm
21:13 10.2 °C 2.8 °C 1026.6 hPa South 3.2 km/h 9.7 km/h 60 % 0 mm
21:18 10.1 °C 3.1 °C 1026.6 hPa SE 4.8 km/h 9.7 km/h 62 % 0 mm
21:23 9.9 °C 3.2 °C 1026.6 hPa South 1.6 km/h 9.7 km/h 63 % 0 mm
21:28 9.8 °C 3.1 °C 1026.6 hPa SSE 4.8 km/h 9.7 km/h 63 % 0 mm
21:33 9.7 °C 3.4 °C 1026.6 hPa SSE 3.2 km/h 9.7 km/h 65 % 0 mm
21:38 9.5 °C 3.5 °C 1026.6 hPa South 4.8 km/h 9.7 km/h 66 % 0 mm
21:43 9.4 °C 3.6 °C 1026.6 hPa SSE 3.2 km/h 9.7 km/h 67 % 0 mm
21:48 9.3 °C 3.7 °C 1026.3 hPa SW 6.4 km/h 8 km/h 68 % 0 mm
21:53 9.3 °C 3.7 °C 1026.3 hPa SE 3.2 km/h 9.7 km/h 68 % 0 mm
21:58 9.1 °C 3.5 °C 1026.3 hPa South 1.6 km/h 9.7 km/h 68 % 0 mm
22:03 8.9 °C 3.5 °C 1026.6 hPa SSW 4.8 km/h 9.7 km/h 69 % 0 mm
22:08 8.8 °C 3.6 °C 1026.6 hPa SSW 3.2 km/h 8 km/h 70 % 0 mm
22:13 8.7 °C 3.5 °C 1026.3 hPa SSE 4.8 km/h 8 km/h 70 % 0 mm
22:18 8.6 °C 3.4 °C 1026.6 hPa ESE 4.8 km/h 8 km/h 70 % 0 mm
22:23 8.5 °C 3.3 °C 1026.6 hPa SSE 1.6 km/h 8 km/h 70 % 0 mm
22:28 8.4 °C 3.2 °C 1026.6 hPa SSE 1.6 km/h 8 km/h 70 % 0 mm
22:33 8.3 °C 3.1 °C 1026.3 hPa SSE 1.6 km/h 8 km/h 70 % 0 mm
22:38 8.2 °C 3.3 °C 1026 hPa ESE 3.2 km/h 6.4 km/h 71 % 0 mm
22:43 8.1 °C 3.2 °C 1026 hPa ESE 4.8 km/h 6.4 km/h 71 % 0 mm
22:48 8.1 °C 3.2 °C 1026.3 hPa SSE 1.6 km/h 8 km/h 71 % 0 mm
22:53 8 °C 3.1 °C 1026 hPa SE 1.6 km/h 8 km/h 71 % 0 mm
22:58 7.9 °C 3 °C 1026 hPa South 3.2 km/h 8 km/h 71 % 0 mm
23:03 7.8 °C 2.9 °C 1026 hPa Calm   6.4 km/h 71 % 0 mm
23:08 7.6 °C 2.7 °C 1026 hPa Calm   6.4 km/h 71 % 0 mm
23:13 7.4 °C 2.5 °C 1026 hPa Calm   6.4 km/h 71 % 0 mm
23:18 7.3 °C 2.6 °C 1026 hPa Calm   4.8 km/h 72 % 0 mm
23:23 7.2 °C 2.5 °C 1026 hPa Calm   1.6 km/h 72 % 0 mm
23:28 7.1 °C 2.4 °C 1026 hPa Calm   3.2 km/h 72 % 0 mm
23:33 6.9 °C 2.2 °C 1026 hPa Calm   3.2 km/h 72 % 0 mm
23:38 6.8 °C 2.3 °C 1026 hPa Calm   3.2 km/h 73 % 0 mm
23:43 6.7 °C 2.2 °C 1026 hPa Calm   1.6 km/h 73 % 0 mm
23:48 6.6 °C 2.3 °C 1025.6 hPa Calm   1.6 km/h 74 % 0 mm
23:53 6.6 °C 2.3 °C 1025.6 hPa Calm   1.6 km/h 74 % 0 mm
23:58 6.5 °C 2.4 °C 1025.6 hPa SE 1.6 km/h 1.6 km/h 75 % 0 mm
Spring, Texas: Villages of Bridgestone
Compliments of Weather Underground - 3 mb

Script developed by  Jim McMurry - jmcmurry@mwt.net Adapted for the template by  Wim van der Kuil - Leuven-Template.eu

You find our weather info also at:

UK Metoffice

WeatherCloud

Weather Underground

Mid-South Weather Network

AWEKAS

Citizen Weather Observer Program (CWOP)

HAMweather, WeatherForYou, PWS Weather

Equipment we use:

Weather-station
Davis Vantage Vue

Weather-program
Meteohub

Weather-server
Debian 7.9 x86 (Guest)

Provider
DreamHost

Davis Vantage Vue

Meteohub

Debian 7.9 x86 (Guest)

DreamHost